Tracking 30743 objects as of 22-Jun-2025
HD Live streaming from Space Station
objects crossing your sky now

STARLINK-5928

Track STARLINK-5928 now!
10-day predictions
STARLINK-5928 is classified as:


NORAD ID: 55958
Int'l Code: 2023-037AW
Perigee: 576.8 km
Apogee: 581.6 km
Inclination: 70.0 °
Period: 96.1 minutes
Semi major axis: 6950 km
RCS: Unknown
Launch date: March 17, 2023
Source: United States (US)
Launch site: AIR FORCE WESTERN TEST RANGE (AFWTR)
Your satellite tracking list
Your tracking list is empty




NASA's NSSDC Master Catalog

Two Line Element Set (TLE):
1 55958U 23037AW  25173.33095265 -.00000166  00000-0 -61345-5 0  9997
2 55958  69.9992 200.9217 0003480 265.2042  94.8719 14.98328085125470
Source of the keplerian elements: AFSPC